Weather History for KBBP - July, 2013

Change the Weather History Date:

Sunday, July 21, 2013

  Actual Average (KFLO) Record (KFLO)
Temperature  
Mean Temperature 82 °F 81 °F  
Max Temperature 91 °F 91 °F 104 °F (1952)
Min Temperature 73 °F 72 °F 64 °F (2001)
Degree Days  
Heating Degree Days 0 0  
Month to date heating degree days 0  
Since 1 June heating degree days 1  
Since 1 July heating degree days 0  
Cooling Degree Days 17 16  
Month to date cooling degree days 336  
Year to date cooling degree days 1040  
Since 1 June cooling degree days 733  
Growing Degree Days 32 (Base 50)    
Moisture  
Dew Point 73 °F    
Average Humidity 81    
Maximum Humidity 94    
Minimum Humidity 46    
Precipitation  
Precipitation 0.05 in 0.17 in 1.70 in (1995)
Month to date precipitation 3.45  
Year to date precipitation 23.43  
Sea Level Pressure  
Sea Level Pressure 29.98 in    
Wind  
Wind Speed 4 mph (SSW)    
Max Wind Speed 10 mph    
Max Gust Speed -    
Visibility 9 miles    
Events Rain , Thunderstorm    
T = Trace of Precipitation, MM = Missing Value Source: NWS Daily Summary

Daily Weather History Graph

Daily Weather History Graph

Search for Another Location

Airport or City:

Trip Planner

Search our weather history database for the weather conditions in past years. The results will help you decide how hot, cold, wet, or windy it might be!

Date:

Astronomy

Jul. 21, 2013 Rise Set
Actual Time 6:21 AM EDT 8:28 PM EDT
Civil Twilight 5:52 AM EDT 8:57 PM EDT
Nautical Twilight 5:18 AM EDT 9:31 PM EDT
Astronomical Twilight 4:40 AM EDT 10:09 PM EDT
Moon 7:27 PM EDT (7/21) 5:04 AM EDT (7/21)
Length of Visible Light 15h 04m
Length of Day
14h 07m
Waxing Gibbous, 98% of the Moon is Illuminated
Jul 21
Waxing Gibbous
Jul 22
Full
Jul 29
Last Quarter
Aug 6
New
Aug 14
First Quarter

Hourly Weather History & Observations

Time (EDT) Temp. Heat Index Dew Point Humidity Pressure Visibility Wind Dir Wind Speed Gust Speed Precip Events Conditions
12:15 AM 77.0 °F - 69.8 °F 78% 30.02 in 10.0 mi South 4.6 mph - N/A   Clear
12:35 AM 77.0 °F - 69.8 °F 78% 30.02 in 10.0 mi SSE 4.6 mph - N/A   Clear
12:55 AM 77.0 °F - 69.8 °F 78% 30.02 in 10.0 mi SSE 3.5 mph - N/A   Clear
1:15 AM 75.2 °F - 71.6 °F 89% 30.01 in 10.0 mi SSE 3.5 mph - N/A   Clear
1:35 AM 75.2 °F - 69.8 °F 83% 30.01 in 10.0 mi Calm Calm - N/A   Clear
1:55 AM 75.2 °F - 71.6 °F 89% 30.01 in 10.0 mi Calm Calm - N/A   Clear
2:15 AM 73.4 °F - 71.6 °F 94% 30.00 in 10.0 mi Calm Calm - N/A   Clear
2:35 AM 73.4 °F - 71.6 °F 94% 29.99 in 10.0 mi Calm Calm - N/A   Clear
2:55 AM 73.4 °F - 71.6 °F 94% 29.99 in 10.0 mi Calm Calm - N/A   Clear
3:15 AM 73.4 °F - 71.6 °F 94% 29.98 in 10.0 mi South 3.5 mph - N/A   Mostly Cloudy
3:35 AM 75.2 °F - 73.4 °F 94% 29.98 in 10.0 mi South 4.6 mph - N/A   Overcast
3:55 AM 75.2 °F - 73.4 °F 94% 29.98 in 10.0 mi South 5.8 mph - N/A   Overcast
4:15 AM 75.2 °F - 73.4 °F 94% 29.97 in 10.0 mi South 5.8 mph - N/A   Overcast
4:35 AM 75.2 °F - 73.4 °F 94% 29.97 in 10.0 mi South 5.8 mph - N/A   Overcast
4:55 AM 77.0 °F - 71.6 °F 83% 29.98 in 10.0 mi South 5.8 mph - N/A   Overcast
5:15 AM 77.0 °F - 73.4 °F 89% 29.98 in 10.0 mi South 3.5 mph - N/A   Overcast
5:35 AM 77.0 °F - 73.4 °F 89% 29.98 in 10.0 mi SSW 4.6 mph - N/A   Overcast
5:55 AM 77.0 °F - 73.4 °F 89% 29.98 in 10.0 mi South 4.6 mph - N/A   Overcast
6:15 AM 77.0 °F - 73.4 °F 89% 29.98 in 10.0 mi South 4.6 mph - N/A   Overcast
6:35 AM 77.0 °F - 73.4 °F 89% 29.98 in 10.0 mi South 4.6 mph - N/A   Overcast
6:55 AM 77.0 °F - 73.4 °F 89% 29.98 in 10.0 mi South 3.5 mph - N/A   Overcast
7:15 AM 77.0 °F - 73.4 °F 89% 29.98 in 10.0 mi Calm Calm - N/A   Scattered Clouds
7:35 AM 77.0 °F - 73.4 °F 89% 30.00 in 10.0 mi SSW 3.5 mph - N/A   Clear
7:55 AM 77.0 °F - 71.6 °F 83% 30.01 in 10.0 mi SSW 4.6 mph - N/A   Mostly Cloudy
8:15 AM 77.0 °F - 73.4 °F 89% 30.01 in 10.0 mi South 4.6 mph - N/A   Overcast
8:35 AM 78.8 °F - 73.4 °F 83% 30.01 in 10.0 mi SW 6.9 mph - N/A   Overcast
8:55 AM 78.8 °F - 73.4 °F 83% 30.01 in 10.0 mi SSW 4.6 mph - N/A   Overcast
9:15 AM 78.8 °F - 73.4 °F 83% 30.02 in 10.0 mi SW 4.6 mph - N/A   Overcast
9:35 AM 78.8 °F - 71.6 °F 78% 30.02 in 10.0 mi South 3.5 mph - N/A   Overcast
9:55 AM 78.8 °F - 71.6 °F 78% 30.02 in 10.0 mi South 4.6 mph - N/A   Overcast
10:15 AM 78.8 °F - 71.6 °F 78% 30.03 in 10.0 mi Calm Calm - N/A   Overcast
10:35 AM 78.8 °F - 73.4 °F 83% 30.03 in 10.0 mi SW 5.8 mph - N/A   Overcast
10:55 AM 80.6 °F 85.4 °F 73.4 °F 79% 30.03 in 10.0 mi SSW 5.8 mph - N/A   Overcast
11:15 AM 80.6 °F 84.6 °F 71.6 °F 74% 30.03 in 10.0 mi SW 4.6 mph - N/A   Overcast
11:35 AM 82.4 °F 87.2 °F 71.6 °F 70% 30.03 in 10.0 mi WSW 3.5 mph - N/A   Overcast
11:55 AM 82.4 °F 87.2 °F 71.6 °F 70% 30.03 in 10.0 mi South 3.5 mph - N/A   Overcast
12:15 PM 84.2 °F 89.6 °F 71.6 °F 66% 30.03 in 10.0 mi West 4.6 mph - N/A   Overcast
12:35 PM 84.2 °F 88.4 °F 69.8 °F 62% 30.01 in 10.0 mi SW 3.5 mph - N/A   Mostly Cloudy
12:55 PM 86.0 °F 89.4 °F 68.0 °F 55% 30.01 in 10.0 mi Calm Calm - N/A   Scattered Clouds
1:15 PM 87.8 °F 91.4 °F 68.0 °F 52% 30.00 in 10.0 mi South 3.5 mph - N/A   Clear
2:15 PM 87.8 °F 91.4 °F 68.0 °F 52% 29.97 in 10.0 mi SSE 3.5 mph - N/A   Scattered Clouds
2:35 PM 87.8 °F 92.6 °F 69.8 °F 55% 29.97 in 10.0 mi Calm Calm - N/A   Mostly Cloudy
2:55 PM 91.4 °F 95.4 °F 68.0 °F 46% 29.95 in 10.0 mi SSW 5.8 mph - N/A   Scattered Clouds
3:15 PM 89.6 °F 93.4 °F 68.0 °F 49% 29.95 in 10.0 mi SSE 4.6 mph - N/A   Clear
3:35 PM 89.6 °F 94.7 °F 69.8 °F 52% 29.94 in 10.0 mi South 8.1 mph - N/A   Scattered Clouds
3:55 PM 87.8 °F 92.6 °F 69.8 °F 55% 29.93 in 10.0 mi SSE 6.9 mph - N/A   Scattered Clouds
4:15 PM 86.0 °F 93.4 °F 73.4 °F 66% 29.93 in 5.0 mi South 5.8 mph - N/A Rain Light Rain
4:35 PM 84.2 °F 89.6 °F 71.6 °F 66% 29.93 in 10.0 mi SSW 9.2 mph - N/A   Overcast
4:55 PM 80.6 °F 85.4 °F 73.4 °F 79% 29.93 in 10.0 mi SW 10.4 mph - N/A Thunderstorm Thunderstorm
5:15 PM 80.6 °F 84.6 °F 71.6 °F 74% 29.93 in 7.0 mi Calm Calm - 0.01 in Rain , Thunderstorm Light Thunderstorms and Rain
5:35 PM 78.8 °F - 73.4 °F 83% 29.94 in 7.0 mi SW 4.6 mph - 0.02 in Rain , Thunderstorm Thunderstorms and Rain
5:55 PM 78.8 °F - 73.4 °F 83% 29.93 in 5.0 mi SSW 4.6 mph - 0.05 in Rain , Thunderstorm Light Thunderstorms and Rain
6:15 PM 80.6 °F 85.4 °F 73.4 °F 79% 29.94 in 10.0 mi South 5.8 mph - N/A Rain , Thunderstorm Light Thunderstorms and Rain
6:35 PM 78.8 °F - 73.4 °F 83% 29.92 in 10.0 mi SSE 3.5 mph - N/A Rain , Thunderstorm Light Thunderstorms and Rain
6:55 PM 78.8 °F - 73.4 °F 83% 29.94 in 10.0 mi SSE 4.6 mph - N/A Thunderstorm Thunderstorm
7:15 PM 78.8 °F - 73.4 °F 83% 29.95 in 7.0 mi South 4.6 mph - N/A Thunderstorm Thunderstorm
7:35 PM 78.8 °F - 77.0 °F 94% 29.95 in 7.0 mi SW 3.5 mph - N/A   Mostly Cloudy
7:55 PM 78.8 °F - 77.0 °F 94% 29.95 in 5.0 mi SSW 3.5 mph - N/A   Mostly Cloudy
8:15 PM 78.8 °F - 77.0 °F 94% 29.94 in 7.0 mi SSE 4.6 mph - N/A   Scattered Clouds
8:35 PM 78.8 °F - 75.2 °F 89% 29.95 in 10.0 mi Calm Calm - N/A   Scattered Clouds
8:55 PM 78.8 °F - 75.2 °F 89% 29.96 in 10.0 mi Calm Calm - N/A   Overcast
9:15 PM 78.8 °F - 75.2 °F 89% 29.97 in 10.0 mi Calm Calm - N/A   Overcast
9:35 PM 78.8 °F - 77.0 °F 94% 29.98 in 7.0 mi Calm Calm - N/A   Overcast
9:55 PM 78.8 °F - 77.0 °F 94% 29.98 in 7.0 mi Calm Calm - N/A   Overcast
10:15 PM 78.8 °F - 77.0 °F 94% 29.98 in 7.0 mi Calm Calm - N/A   Overcast
10:35 PM 78.8 °F - 77.0 °F 94% 29.98 in 7.0 mi Calm Calm - N/A   Light Drizzle
10:55 PM 78.8 °F - 77.0 °F 94% 29.98 in 5.0 mi Calm Calm - N/A Thunderstorm Unknown
11:15 PM 78.8 °F - 77.0 °F 94% 29.99 in 5.0 mi SSW 3.5 mph - N/A   Scattered Clouds
11:35 PM 78.8 °F - 77.0 °F 94% 29.98 in 5.0 mi SSW 3.5 mph - N/A Thunderstorm Scattered Clouds
11:55 PM 78.8 °F - 77.0 °F 94% 29.98 in 7.0 mi SW 5.8 mph - N/A   Clear